TimeCDT,TemperatureF,Dew PointF,Humidity,Sea Level PressureIn,VisibilityMPH,Wind Direction,Wind SpeedMPH,Gust SpeedMPH,PrecipitationIn,Events,Conditions,WindDirDegrees,DateUTC
12:53 AM,64.0,60.1,87,29.83,10.0,Calm,Calm,-,N/A,,Clear,0,2013-09-24 05:53:00
1:53 AM,64.0,61.0,90,29.83,10.0,Calm,Calm,-,N/A,,Clear,0,2013-09-24 06:53:00
2:53 AM,63.0,61.0,93,29.85,10.0,Calm,Calm,-,N/A,,Clear,0,2013-09-24 07:53:00
3:53 AM,63.0,61.0,93,29.85,10.0,Calm,Calm,-,N/A,,Clear,0,2013-09-24 08:53:00
4:53 AM,63.0,61.0,93,29.85,10.0,Calm,Calm,-,N/A,,Scattered Clouds,0,2013-09-24 09:53:00
5:53 AM,63.0,61.0,93,29.86,10.0,Calm,Calm,-,N/A,,Clear,0,2013-09-24 10:53:00
6:53 AM,64.0,61.0,90,29.88,10.0,Calm,Calm,-,N/A,,Clear,0,2013-09-24 11:53:00
7:53 AM,64.0,62.1,93,29.89,10.0,Calm,Calm,-,N/A,,Clear,0,2013-09-24 12:53:00
8:53 AM,73.0,64.0,73,29.90,10.0,Calm,Calm,-,N/A,,Clear,0,2013-09-24 13:53:00
9:53 AM,78.1,64.9,64,29.91,10.0,Variable,3.5,-,N/A,,Clear,0,2013-09-24 14:53:00
10:53 AM,82.0,64.9,56,29.93,10.0,Calm,Calm,-,N/A,,Clear,0,2013-09-24 15:53:00
11:53 AM,86.0,62.1,44,29.92,10.0,NW,5.8,-,N/A,,Clear,320,2013-09-24 16:53:00
12:53 PM,89.1,57.0,34,29.90,10.0,North,12.7,-,N/A,,Clear,360,2013-09-24 17:53:00
1:53 PM,90.0,57.0,33,29.88,10.0,North,6.9,-,N/A,,Clear,350,2013-09-24 18:53:00
2:53 PM,91.0,55.9,30,29.86,10.0,WNW,5.8,16.1,N/A,,Clear,290,2013-09-24 19:53:00
3:53 PM,91.9,53.1,27,29.84,10.0,NNW,8.1,-,N/A,,Clear,330,2013-09-24 20:53:00
4:53 PM,91.9,50.0,24,29.83,10.0,NW,8.1,-,N/A,,Clear,320,2013-09-24 21:53:00
5:53 PM,91.0,50.0,24,29.83,10.0,NNW,9.2,-,N/A,,Clear,340,2013-09-24 22:53:00
6:53 PM,88.0,50.0,27,29.83,10.0,NNW,9.2,-,N/A,,Clear,340,2013-09-24 23:53:00
7:53 PM,77.0,53.1,43,29.84,10.0,NNW,5.8,-,N/A,,Clear,330,2013-09-25 00:53:00
8:53 PM,73.0,54.0,51,29.85,-9999.0,NNW,4.6,-,N/A,,Clear,330,2013-09-25 01:53:00
9:53 PM,71.1,54.0,55,29.86,-9999.0,NW,4.6,-,N/A,,Clear,320,2013-09-25 02:53:00
10:53 PM,68.0,55.0,63,29.86,-9999.0,Calm,Calm,-,N/A,,Clear,0,2013-09-25 03:53:00
11:53 PM,64.9,55.9,73,29.86,-9999.0,Calm,Calm,-,N/A,,Clear,0,2013-09-25 04:53:00